Weather in Cavelossim

India     15°15′25″N   74°06′39″E
temp.,
°C
wind,
m/s
gust,
m/s
humid.,
%
clouds,
%
prec.,
mm/h
press.,
hPa
HPBL,
m
20 may, fri
fri2023:30+23se0191100 7.9 1008117
02:30+24w3791100 4.0 1007436
05:30+23wsw4789100 8.1 1008456
08:30+22w4979100 1.2 1011524
11:30+22wnw2582100 2.9 1011451
14:30+23wsw1483100 0.9 1009491
17:30+22nne1390100 1.2 1008237
20:30+22ese1293100 0.1 1009117
21 may, sat
sat2123:30+22e2293100 0.4 1009107
02:30+22ese1290100 0.1 100766
05:30+22se1188100 0.1 100842
08:30+23sse128799 0.0 1010102
11:30+26sw247486 0.0 1009583
14:30+27wsw346796 0.0 1008722
17:30+28sw346691 0.0 1007922
20:30+26sw237697 0.0 1008130
22 may, sun
sun2223:30+25ssw238373 0.0 1008121
02:30+26sw238562 0.9 1006134
05:30+25w248923 2.6 1006154
08:30+28wsw368066 1.8 1008674
11:30+30wsw567052 3.7 10071017
14:30+30wsw5670100 3.0 10051043
17:30+28wsw4674100 4.6 1005778
20:30+26ssw2586100 0.8 1007198
23 may, mon
mon2323:30+26sw248897 1.5 1007134
02:30+26wsw2389100 0.9 100488
05:30+25w239098 2.1 100577
08:30+29w357848 0.8 1007763
11:30+31w456782 1.9 10061156
14:30+31w556425 1.1 10051231
17:30+29w457258 1.4 1005891
20:30+26w238694 1.3 100795
24 may, tue
tue2423:30+26wsw1286100 2.3 100783
02:30+26w1287100 0.3 100692
05:30+26sw018899 0.7 100662
08:30+29w247342 0.4 1008697
11:30+32w45549 0.4 10081449
14:30+32w46545 0.0 10061368
17:30+31w45626 0.0 10061035
20:30+28wsw117828 0.2 100826